#timestamp,LO_Frequency,Hit,StdDev 
1675260015.8,286047000.1,N
1675260035.6,286046999.4,N
1675260055.5,286047002.7,N
1675260075.3,286047001.6,N
1675260095.1,286047000.3,N
1675260115.9,286047002.0,N
1675260135.7,286047002.7,N
1675260155.5,286046998.8,N
1675260175.4,286046998.1,N
1675260195.2,286046998.7,N
1675260215.1,286046997.4,N
1675260216.0,286046997.4,N
1675260235.8,286046999.5,N
1675260255.6,286046998.3,N
1675260275.5,286046998.4,N
1675260295.3,286046997.0,N
1675260315.1,286046997.7,N
1675260335.9,286046995.8,N
1675260355.7,286046995.6,N
1675260375.6,286046996.8,N
1675260395.4,286046999.2,N
1675260415.2,286046997.2,N
1675260435.1,286046995.2,N
1675260436.0,286046995.2,N
1675260455.8,286046996.7,N
1675260475.6,286047000.7,N
1675260495.5,286047001.1,N
1675260515.3,286046996.9,N
1675260535.2,286046995.4,N
1675260555.9,286046993.4,Y
1675260575.7,286046996.8,P
1675260595.6,286046995.3,P
1675260615.4,286046996.3,N
1675260635.3,286046996.3,Y
1675260655.1,286046998.3,P
1675260656.0,286046998.3,N
1675260675.8,286047001.0,N
1675260695.7,286047001.9,N
1675260715.5,286047003.9,N
1675260735.4,286046999.8,N
1675260755.2,286047004.0,N
1675260775.0,286047003.5,N
1675260775.9,286047003.5,N
1675260795.8,286047002.4,N
1675260815.6,286047001.8,N
1675260835.5,286047004.5,N
1675260855.3,286047006.2,N
1675260875.1,286047005.2,N
1675260895.9,286047004.4,N
1675260915.7,286047001.3,N
1675260935.5,286047000.4,N
1675260955.4,286047001.9,N
1675260975.2,286047005.9,N
1675260995.1,286047005.8,N
1675260996.0,286047005.8,N
1675261015.8,286047001.9,N
1675261035.6,286047002.4,N
1675261055.5,286047001.2,N
1675261075.3,286047001.0,N
1675261095.1,286047004.1,N
1675261115.9,286047002.7,N
1675261135.7,286047000.1,N
1675261155.6,286047006.0,N
1675261175.4,286047003.3,N
1675261195.2,286047002.6,N
1675261215.1,286047000.0,N
1675261216.0,286047000.0,N
1675261235.8,286047004.1,N
1675261255.6,286047006.9,Y
1675261275.5,286047005.0,P
1675261295.3,286047003.2,P
1675261315.2,286047004.7,P
1675261335.9,286047003.8,Y
1675261355.7,286046999.5,P
1675261375.6,286047002.7,N
1675261395.4,286047002.4,N
1675261415.3,286047004.3,N
1675261435.1,286047000.5,N
1675261436.0,286047000.5,N
1675261455.8,286046996.7,N
1675261475.7,286046999.6,N
1675261495.5,286046998.5,N
1675261515.3,286046998.5,N
1675261535.2,286047000.8,N
1675261555.0,286047004.3,N
1675261555.9,286047004.3,N
1675261575.8,286047003.8,N
1675261595.6,286047000.2,N
1675261615.4,286046998.7,N
1675261635.3,286046998.8,N
1675261655.1,286047000.5,N
1675261675.8,286046999.7,N
1675261695.7,286046999.4,N
1675261715.5,286046998.4,N
1675261735.4,286047001.3,N
1675261755.2,286047002.3,N
1675261775.0,286047000.6,N
1675261775.9,286047000.6,N
1675261795.8,286046999.3,N
1675261815.6,286046998.3,N
1675261835.4,286046996.0,N
1675261855.3,286046996.3,N
1675261875.1,286046995.1,N
1675261895.9,286046997.0,N
1675261915.7,286047000.3,N
1675261935.5,286047001.0,N
1675261955.4,286047000.2,N
1675261975.2,286046998.1,N
1675261995.0,286047000.7,N
1675261995.9,286047000.7,N
1675262015.8,286047000.2,N
1675262035.6,286046998.8,N
1675262055.5,286047001.8,N
1675262075.3,286047002.1,N
1675262095.1,286047004.1,N
1675262115.9,286047003.9,N
1675262135.7,286047001.8,N
1675262155.5,286047002.1,N
1675262175.4,286046998.9,N
1675262195.2,286046999.4,N
1675262215.1,286046996.1,N
1675262216.0,286046996.1,N
1675262235.8,286046993.4,N
1675262255.6,286046996.2,N
1675262275.5,286046996.8,N
1675262295.3,286046998.3,N
1675262315.1,286047000.1,N
1675262335.9,286046996.5,N
1675262355.7,286047001.2,N
1675262375.6,286046997.0,N
1675262395.4,286046997.8,N
1675262415.2,286046996.0,N
1675262435.1,286046994.2,N
1675262436.0,286046994.2,N
1675262455.8,286046992.3,N
1675262475.6,286046994.5,N
1675262495.5,286046993.6,N
1675262515.3,286046994.3,N
1675262535.2,286046993.9,N
1675262555.9,286046993.2,N
1675262575.7,286046991.7,N
1675262595.6,286046995.2,N
1675262615.4,286046995.3,N
1675262635.2,286046994.0,N
1675262655.1,286046996.7,N
1675262656.0,286046996.7,N
1675262675.8,286046999.5,N
1675262695.7,286046997.9,N
1675262715.5,286046998.7,N
1675262735.3,286047001.1,N
1675262755.2,286047001.1,N
1675262775.0,286046999.5,N
1675262775.9,286046999.5,N
1675262795.8,286046997.7,N
1675262815.6,286046997.2,N
1675262835.4,286046995.3,N
1675262855.3,286046995.5,N
1675262875.1,286046996.3,N
1675262895.9,286046997.8,N
1675262915.7,286046997.5,N
1675262935.5,286046998.9,N
1675262955.4,286047000.5,N
1675262975.2,286047002.1,N
1675262995.0,286047001.5,N
1675262995.9,286047001.5,N
1675263015.8,286047003.8,N
1675263035.6,286047001.4,N
1675263055.5,286047000.2,N
1675263075.3,286046998.1,N
1675263095.1,286047001.2,N
1675263115.9,286047002.0,N
1675263135.7,286047003.7,N
1675263155.5,286047002.3,N
1675263175.4,286047002.2,N
1675263195.2,286047001.4,N
1675263215.1,286047003.7,N
1675263216.0,286047003.7,N
1675263235.8,286047002.5,N
1675263255.6,286047000.9,N
1675263275.5,286046998.1,N
1675263295.3,286047002.4,N
1675263315.2,286047001.7,N
1675263335.9,286047002.4,N
1675263355.7,286047002.3,N
1675263375.6,286047002.7,N
1675263395.4,286046999.8,N
1675263415.2,286046998.7,N
1675263435.1,286047000.3,N
1675263436.0,286047000.3,N
1675263455.8,286046998.4,N
1675263475.7,286046999.9,N
1675263495.5,286047002.8,N
1675263515.3,286046999.9,N
1675263535.2,286047000.9,N
1675263555.0,286047002.1,N
1675263555.9,286047002.1,N
1675263575.8,286047002.2,N
1675263595.6,286046999.6,N
